Regional Weather Roundup
Issued by NWS

Home | Current Version | Previous Version | Graphics & Text | Print | Product List | Glossary On
Versions: 1 2 3 4 5 6 7 8 9 10 11 12 13 14 15 16 17 18 19 20 21 22 23 24 25 26 27 28 29 30 31 32 33 34 35 36 37 38 39 40 41 42 43 44 45 46 47 48 49
000
ASUS45 KTFX 300710
RWRMT
MONTANA REGIONAL WEATHER ROUNDUP
NATIONAL WEATHER SERVICE GREAT FALLS MT
100 AM MDT THU JUL 30 2015

NOTE: "FAIR" INDICATES FEW OR NO CLOUDS BELOW 12000 FEET WITH NO
SIGNIFICANT WEATHER AND/OR OBSTRUCTIONS TO VISIBILITY.

MTZ001>007-043-300800-
WEST OF THE DIVIDE

CITY           SKY/WX    TMP DP  RH WIND       PRES   REMARKS
KALISPELL      SUNNY     52  37  56 CALM      30.19R
MISSOULA       CLEAR     60  43  53 CALM      30.24R
BUTTE          CLEAR     50  40  68 E6        30.36R
MULLAN PASS    CLEAR     59  28  30 NW3       30.36S
DEER LODGE       N/A     52  41  66 CALM      30.35R
EUREKA           N/A     55  37  50 CALM      30.18R
HAMILTON         N/A     55  41  58 S3        30.25S
LIBBY            N/A     55  37  50 CALM      30.19R
RONAN            N/A     54  45  71 CALM      30.24R
THOMPSON FALLS   N/A     56  41  57 CALM      30.23R
$$

MTZ008-052>055-300800-
SOUTHWEST MONTANA

CITY           SKY/WX    TMP DP  RH WIND       PRES   REMARKS
BOZEMAN        CLEAR     55  45  68 S8        30.29R
DILLON         CLEAR     56  43  61 S13       30.32R
W YELLOWSTONE  CLEAR     43  39  87 CALM      30.44R
THREE FORKS      N/A     54  54 100 CALM      30.25R
TWIN BRIDGES     N/A     52  42  68 CALM      30.27
$$

MTZ009-010-012-014-046-048-049-054-300800-
EAST SLOPES AND CENTRAL MONTANA

CITY           SKY/WX    TMP DP  RH WIND       PRES   REMARKS
CUT BANK       PTCLDY    52  40  63 NW8       30.23R
GREAT FALLS    CLEAR     61  42  49 SW7       30.21R
MALMSTROM AFB  CLEAR     60  44  55 SW9       30.21
HELENA         CLEAR     59  41  51 NW3       30.25R
CONRAD           N/A     63  44  49 W3        30.21R
$$

MTZ011-013-016-021-045-047-050-051-300800-
NORTH CENTRAL MONTANA

CITY           SKY/WX    TMP DP  RH WIND       PRES   REMARKS
HAVRE          CLEAR     59  51  75 CALM      30.15R
LEWISTOWN      CLEAR     56  43  61 CALM      30.25R
CHINOOK          N/A     57  52  82 SW6       30.15R
FORT BENTON      N/A     63  43  48 CALM      30.18S
$$

MTZ017>020-022>027-061-062-300800-
NORTHEAST MONTANA

CITY           SKY/WX    TMP DP  RH WIND       PRES   REMARKS
GLASGOW        PTCLDY    63  52  67 NE9       30.11F
JORDAN           N/A     56  48  74 CALM      30.13S
SIDNEY         CLEAR     54  48  82 S6        30.10S
WOLF POINT     LGT RAIN  63  50  62 NW13G25   30.14R
MALTA            N/A     63  51  64 MISG      30.08R
PLENTYWOOD       N/A     61  52  72 W3        30.12S
POPLAR           N/A     57  54  88 CALM      30.12R
SCOBEY           N/A     58  48  69 NW1       30.12R
$$

MTZ028>42-056>058-300800-
SOUTHCENTRAL AND SOUTHEAST MONTANA

CITY           SKY/WX    TMP DP  RH WIND       PRES   REMARKS
BAKER          CLEAR     55  43  63 SE3       30.20R
BILLINGS       CLEAR     66  40  38 SW9       30.25R
LIVINGSTON     CLEAR     54  41  61 CALM      30.30R
MILES CITY     CLEAR     60  47  61 SE6       30.16S
FORSYTH          N/A     63  43  48 CALM      30.18S
LAUREL           N/A     64  34  32 CALM      30.21R
ROUNDUP          N/A     58  40  51 SW3       30.12R
$$

REGIONAL REPORTS...DAKOTAS

CITY           SKY/WX    TMP DP  RH WIND       PRES   REMARKS
WILLISTON      PTCLDY    57  52  83 N7        30.10R
MINOT          CLEAR     59  52  77 SW8       30.04R
DICKINSON      CLEAR     52  45  77 S5        30.13S
BEACH          FAIR      52  48  87 SW3       30.17S
CROSBY         FAIR      59  55  88 NW10      30.12R
BISMARCK       CLEAR     57  51  80 SW3       30.10S
GRAND FORKS    CLEAR     63  57  81 W8        29.93R
FARGO          CLEAR     64  56  75 W9        29.97S
BUFFALO SD       N/A     59  41  51 W6        30.14R
RAPID CITY     CLEAR     57  47  69 NW7       30.21S
$$

REGIONAL REPORTS...WYOMING/IDAHO/WASHINGTON

CITY           SKY/WX    TMP DP  RH WIND       PRES   REMARKS
GILLETTE       CLEAR     51  39  63 CALM      30.28R
SHERIDAN       CLEAR     50  42  74 SW3       30.27R
BUFFALO WY     CLEAR     58  37  45 W7        30.33R
CODY           CLEAR     57  32  38 S5        30.34R
YELLOWSTONE LA   N/A     40  34  79 W3        30.53R
IDAHO FALLS    CLEAR     49  42  77 N3        30.30R
SALMON         CLEAR     57  45  62 CALM      30.27R
BOISE          CLEAR     67  36  31 SE7       30.16R
SPOKANE        CLEAR     73  32  22 S7        30.14S
$$

REGIONAL REPORTS...ALBERTA

CITY           SKY/WX    TMP DP  RH WIND       PRES   REMARKS
EDMONTON       PTCLDY    54  46  76 SW6       30.12R
CALGARY        PTCLDY    54  46  76 NE2       30.22R
LETHBRIDGE     MOCLDY    52  48  87 SW3       30.19R
MEDICINE HAT   CLEAR     54  48  82 S3        30.14R
WATERTON GATE    N/A     45  39  81 SW2         N/A
CARDSTON         N/A     50  39  66 S2          N/A
MILK RIVER       N/A     48  45  87 NW6         N/A
ONEFOUR          N/A     55  46  71 N12         N/A
$$

REGIONAL REPORTS...SASKATCHEWAN

CITY           SKY/WX    TMP DP  RH WIND       PRES   REMARKS
SWIFT CURRENT  CLEAR     54  50  87 SW10      30.13R
REGINA         MOCLDY    57  54  88 SW8       30.05F
SASKATOON      PTCLDY    55  52  88 W9        30.04R
CYPRESS HILLS    N/A     54  41  62 NW2         N/A
VAL MARIE        N/A     55  52  88 NE9         N/A
ROCKGLEN         N/A     54  50  87 NE2         N/A
ASSINIBOIA       N/A     54  50  87 W9          N/A
$$



USA.gov is the U.S. government's official web portal to all federal, state and local government web resources and services.